Time,TemperatureF,DewpointF,PressureIn,WindDirection,WindDirectionDegrees,WindSpeedMPH,WindSpeedGustMPH,Humidity,HourlyPrecipIn,Conditions,Clouds,dailyrainin,SolarRadiationWatts/m^2,SoftwareType,DateUTC
2013-02-25 00:00:00,40.6,23.5,29.93,North,11,14.0,29.0,50,0.00,,,0.00,0.0,meteohub,2013-02-25 05:00:00,
2013-02-25 00:02:00,40.6,23.5,29.93,NNE,16,16.0,26.0,50,0.00,,,0.00,0.0,meteohub,2013-02-25 05:02:00,
2013-02-25 00:06:00,40.5,23.7,29.93,NNE,13,17.0,25.0,51,0.00,,,0.00,0.0,meteohub,2013-02-25 05:06:00,
2013-02-25 00:09:00,40.5,23.4,29.93,NNE,16,19.0,25.0,50,0.00,,,0.00,0.0,meteohub,2013-02-25 05:09:00,
2013-02-25 00:15:00,40.5,23.7,29.93,North,5,15.0,25.0,51,0.00,,,0.00,0.0,meteohub,2013-02-25 05:15:00,
2013-02-25 00:21:00,40.5,23.7,29.93,NNE,22,5.0,25.0,51,0.00,,,0.00,0.0,meteohub,2013-02-25 05:21:00,
2013-02-25 00:27:00,40.5,23.7,29.92,NNE,16,6.0,25.0,51,0.00,,,0.00,0.0,meteohub,2013-02-25 05:27:00,
2013-02-25 00:32:00,40.5,23.7,29.92,North,355,12.0,25.0,51,0.00,,,0.00,0.0,meteohub,2013-02-25 05:32:00,
2013-02-25 00:37:00,40.5,24.3,29.92,North,11,12.0,23.0,52,0.00,,,0.00,0.0,meteohub,2013-02-25 05:37:00,
2013-02-25 00:42:00,40.6,23.5,29.92,NE,35,25.0,25.0,50,0.00,,,0.00,0.0,meteohub,2013-02-25 05:42:00,
2013-02-25 00:47:00,40.8,23.5,29.92,NNE,12,6.0,25.0,50,0.00,,,0.00,0.0,meteohub,2013-02-25 05:47:00,
2013-02-25 00:52:00,40.8,24.1,29.92,North,5,10.0,25.0,51,0.00,,,0.00,0.0,meteohub,2013-02-25 05:52:00,
2013-02-25 00:57:00,40.8,24.1,29.92,North,355,11.0,25.0,51,0.00,,,0.00,0.0,meteohub,2013-02-25 05:57:00,
2013-02-25 01:02:00,40.8,23.5,29.92,North,11,5.0,16.0,50,0.00,,,0.00,0.0,meteohub,2013-02-25 06:02:00,
2013-02-25 01:07:00,40.6,23.9,29.93,North,355,5.0,17.0,51,0.00,,,0.00,0.0,meteohub,2013-02-25 06:07:00,
2013-02-25 01:12:00,40.8,23.5,29.93,NNE,19,6.0,18.0,50,0.00,,,0.00,0.0,meteohub,2013-02-25 06:12:00,
2013-02-25 01:17:00,40.8,24.1,29.93,NNE,15,6.0,18.0,51,0.00,,,0.00,0.0,meteohub,2013-02-25 06:17:00,
2013-02-25 01:22:00,40.6,23.5,29.93,NNE,15,7.0,18.0,50,0.00,,,0.00,0.0,meteohub,2013-02-25 06:22:00,
2013-02-25 01:27:00,40.6,23.5,29.93,North,11,9.0,18.0,50,0.00,,,0.00,0.0,meteohub,2013-02-25 06:27:00,
2013-02-25 01:32:00,40.6,23.5,29.93,North,10,15.0,18.0,50,0.00,,,0.00,0.0,meteohub,2013-02-25 06:32:00,
2013-02-25 01:37:00,40.6,23.5,29.93,NNE,15,5.0,19.0,50,0.00,,,0.00,0.0,meteohub,2013-02-25 06:37:00,
2013-02-25 01:42:00,40.6,23.9,29.94,North,5,6.0,19.0,51,0.00,,,0.00,0.0,meteohub,2013-02-25 06:42:00,
2013-02-25 01:47:00,40.5,23.4,29.93,North,11,6.0,19.0,50,0.00,,,0.00,0.0,meteohub,2013-02-25 06:47:00,
2013-02-25 01:52:00,40.5,23.4,29.94,NNE,13,6.0,17.0,50,0.00,,,0.00,0.0,meteohub,2013-02-25 06:52:00,
2013-02-25 01:57:00,40.6,23.0,29.93,North,5,8.0,16.0,49,0.00,,,0.00,0.0,meteohub,2013-02-25 06:57:00,
2013-02-25 02:02:00,40.5,23.7,29.93,NNE,14,5.0,17.0,51,0.00,,,0.00,0.0,meteohub,2013-02-25 07:02:00,
2013-02-25 02:07:00,40.5,23.7,29.92,NNE,28,5.0,17.0,51,0.00,,,0.00,0.0,meteohub,2013-02-25 07:07:00,
2013-02-25 02:12:00,40.5,24.3,29.92,North,9,13.0,17.0,52,0.00,,,0.00,0.0,meteohub,2013-02-25 07:12:00,
2013-02-25 02:17:00,40.5,23.4,29.92,North,0,5.0,18.0,50,0.00,,,0.00,0.0,meteohub,2013-02-25 07:17:00,
2013-02-25 02:22:00,40.5,24.3,29.92,NNE,15,3.0,18.0,52,0.00,,,0.00,0.0,meteohub,2013-02-25 07:22:00,
2013-02-25 02:27:00,39.9,24.6,29.92,NNE,15,3.0,18.0,54,0.00,,,0.00,0.0,meteohub,2013-02-25 07:27:00,
2013-02-25 02:32:00,39.9,23.7,29.93,NNE,19,4.0,17.0,52,0.00,,,0.00,0.0,meteohub,2013-02-25 07:32:00,
2013-02-25 02:37:00,40.3,24.4,29.93,NNE,13,5.0,6.0,53,0.00,,,0.00,0.0,meteohub,2013-02-25 07:37:00,
2013-02-25 02:42:00,40.5,23.7,29.93,North,355,5.0,6.0,51,0.00,,,0.00,0.0,meteohub,2013-02-25 07:42:00,
2013-02-25 02:47:00,40.6,23.9,29.94,North,9,3.0,6.0,51,0.00,,,0.00,0.0,meteohub,2013-02-25 07:47:00,
2013-02-25 02:52:00,40.5,23.4,29.94,NNE,16,4.0,6.0,50,0.00,,,0.00,0.0,meteohub,2013-02-25 07:52:00,
2013-02-25 02:57:00,40.3,23.5,29.94,NNE,12,4.0,11.0,51,0.00,,,0.00,0.0,meteohub,2013-02-25 07:57:00,
2013-02-25 03:02:00,40.3,23.2,29.94,NNE,12,4.0,11.0,50,0.00,,,0.00,0.0,meteohub,2013-02-25 08:02:00,
2013-02-25 03:07:00,40.3,23.2,29.94,NNE,15,5.0,11.0,50,0.00,,,0.00,0.0,meteohub,2013-02-25 08:07:00,
2013-02-25 03:12:00,40.3,22.6,29.93,NNE,12,5.0,6.0,49,0.00,,,0.00,0.0,meteohub,2013-02-25 08:12:00,
2013-02-25 03:17:00,39.9,23.2,29.93,North,11,6.0,8.0,51,0.00,,,0.00,0.0,meteohub,2013-02-25 08:17:00,
2013-02-25 03:22:00,39.7,23.2,29.92,NNE,12,15.0,15.0,51,0.00,,,0.00,0.0,meteohub,2013-02-25 08:22:00,
2013-02-25 03:27:00,39.9,22.3,29.92,NNE,19,4.0,17.0,49,0.00,,,0.00,0.0,meteohub,2013-02-25 08:27:00,
2013-02-25 03:32:00,39.9,23.2,29.92,North,5,4.0,17.0,51,0.00,,,0.00,0.0,meteohub,2013-02-25 08:32:00,
2013-02-25 03:37:00,39.7,23.2,29.93,NE,36,5.0,17.0,51,0.00,,,0.00,0.0,meteohub,2013-02-25 08:37:00,
2013-02-25 03:42:00,39.6,23.0,29.93,NE,41,2.0,16.0,51,0.00,,,0.00,0.0,meteohub,2013-02-25 08:42:00,
2013-02-25 03:47:00,39.4,23.7,29.94,NNE,30,4.0,16.0,53,0.00,,,0.00,0.0,meteohub,2013-02-25 08:47:00,
2013-02-25 03:52:00,39.4,22.3,29.94,ENE,57,1.0,7.0,50,0.00,,,0.00,0.0,meteohub,2013-02-25 08:52:00,
2013-02-25 03:57:00,39.4,24.1,29.94,NNE,23,3.0,6.0,54,0.00,,,0.00,0.0,meteohub,2013-02-25 08:57:00,
2013-02-25 04:02:00,38.8,23.5,29.94,North,11,2.0,6.0,54,0.00,,,0.00,0.0,meteohub,2013-02-25 09:02:00,
2013-02-25 04:07:00,38.8,21.7,29.94,North,9,1.0,6.0,50,0.00,,,0.00,0.0,meteohub,2013-02-25 09:07:00,
2013-02-25 04:12:00,39.4,21.4,29.94,NNE,23,2.0,15.0,48,0.00,,,0.00,0.0,meteohub,2013-02-25 09:12:00,
2013-02-25 04:17:00,39.7,20.7,29.95,NNE,16,7.0,18.0,46,0.00,,,0.00,0.0,meteohub,2013-02-25 09:17:00,
2013-02-25 04:22:00,39.9,20.8,29.95,North,11,1.0,18.0,46,0.00,,,0.00,0.0,meteohub,2013-02-25 09:22:00,
2013-02-25 04:27:00,39.9,21.4,29.94,North,355,5.0,18.0,47,0.00,,,0.00,0.0,meteohub,2013-02-25 09:27:00,
2013-02-25 04:32:00,39.7,21.7,29.95,NNE,26,4.0,19.0,48,0.00,,,0.00,0.0,meteohub,2013-02-25 09:32:00,
2013-02-25 04:37:00,39.6,21.9,29.95,North,0,4.0,26.0,49,0.00,,,0.00,0.0,meteohub,2013-02-25 09:37:00,
2013-02-25 04:42:00,39.4,21.7,29.96,NNE,14,4.0,28.0,49,0.00,,,0.00,0.0,meteohub,2013-02-25 09:42:00,
2013-02-25 04:47:00,39.2,21.6,29.95,NNE,12,17.0,28.0,49,0.00,,,0.00,0.0,meteohub,2013-02-25 09:47:00,
2013-02-25 04:52:00,39.0,21.9,29.95,North,351,5.0,29.0,50,0.00,,,0.00,0.0,meteohub,2013-02-25 09:52:00,
2013-02-25 04:57:00,38.8,21.7,29.95,NNE,14,4.0,29.0,50,0.00,,,0.00,0.0,meteohub,2013-02-25 09:57:00,
2013-02-25 05:02:00,38.8,21.7,29.95,NNE,18,1.0,25.0,50,0.00,,,0.00,0.0,meteohub,2013-02-25 10:02:00,
2013-02-25 05:07:00,38.8,21.7,29.96,ENE,63,1.0,25.0,50,0.00,,,0.00,0.0,meteohub,2013-02-25 10:07:00,
2013-02-25 05:12:00,38.7,22.1,29.96,North,5,2.0,17.0,51,0.00,,,0.00,0.0,meteohub,2013-02-25 10:12:00,
2013-02-25 05:17:00,38.7,22.1,29.96,NNE,13,3.0,17.0,51,0.00,,,0.00,0.0,meteohub,2013-02-25 10:17:00,
2013-02-25 05:22:00,38.5,21.4,29.96,NNW,334,2.0,14.0,50,0.00,,,0.00,0.0,meteohub,2013-02-25 10:22:00,
2013-02-25 05:27:00,38.5,21.4,29.96,NNE,32,3.0,17.0,50,0.00,,,0.00,0.0,meteohub,2013-02-25 10:27:00,
2013-02-25 05:32:00,38.3,21.2,29.96,North,5,3.0,19.0,50,0.00,,,0.00,0.0,meteohub,2013-02-25 10:32:00,
2013-02-25 05:37:00,38.1,21.2,29.96,North,5,5.0,25.0,50,0.00,,,0.00,0.0,meteohub,2013-02-25 10:37:00,
2013-02-25 05:42:00,37.9,21.4,29.96,NNW,346,5.0,25.0,51,0.00,,,0.00,0.0,meteohub,2013-02-25 10:42:00,
2013-02-25 05:47:00,37.6,21.0,29.96,NNE,29,3.0,25.0,51,0.00,,,0.00,0.0,meteohub,2013-02-25 10:47:00,
2013-02-25 05:52:00,37.4,20.8,29.96,NNE,24,4.0,29.0,51,0.00,,,0.00,0.0,meteohub,2013-02-25 10:52:00,
2013-02-25 05:57:00,37.2,20.8,29.96,NNE,18,4.0,33.0,51,0.00,,,0.00,0.0,meteohub,2013-02-25 10:57:00,
2013-02-25 06:02:00,37.0,20.7,29.97,NW,319,19.0,33.0,51,0.00,,,0.00,0.0,meteohub,2013-02-25 11:02:00,
2013-02-25 06:07:00,36.7,20.7,29.97,North,5,17.0,33.0,52,0.00,,,0.00,0.0,meteohub,2013-02-25 11:07:00,
2013-02-25 06:12:00,36.3,20.3,29.97,NNE,15,5.0,31.0,52,0.00,,,0.00,0.0,meteohub,2013-02-25 11:12:00,
2013-02-25 06:17:00,36.3,20.8,29.98,SW,220,4.0,31.0,53,0.00,,,0.00,0.0,meteohub,2013-02-25 11:17:00,
2013-02-25 06:22:00,36.1,20.7,29.98,South,174,1.0,31.0,53,0.00,,,0.00,0.0,meteohub,2013-02-25 11:22:00,
2013-02-25 06:27:00,36.1,20.7,29.98,North,0,5.0,22.0,53,0.00,,,0.00,0.0,meteohub,2013-02-25 11:27:00,
2013-02-25 06:32:00,36.0,20.5,29.98,NNE,13,5.0,28.0,53,0.00,,,0.00,0.0,meteohub,2013-02-25 11:32:00,
2013-02-25 06:37:00,36.0,21.0,29.98,NE,38,9.0,28.0,54,0.00,,,0.00,0.0,meteohub,2013-02-25 11:37:00,
2013-02-25 06:42:00,35.8,20.8,29.98,NNW,336,1.0,28.0,54,0.00,,,0.00,0.0,meteohub,2013-02-25 11:42:00,
2013-02-25 06:47:00,35.6,21.0,29.99,North,355,14.0,25.0,55,0.00,,,0.00,0.0,meteohub,2013-02-25 11:47:00,
2013-02-25 06:52:00,35.4,21.7,29.99,NE,49,8.0,25.0,57,0.00,,,0.00,0.0,meteohub,2013-02-25 11:52:00,
2013-02-25 06:57:00,35.2,21.6,29.99,NNW,331,3.0,24.0,57,0.00,,,0.00,0.0,meteohub,2013-02-25 11:57:00,
2013-02-25 07:02:00,35.2,21.6,29.99,NE,51,5.0,22.0,57,0.00,,,0.00,0.0,meteohub,2013-02-25 12:02:00,
2013-02-25 07:07:00,35.4,21.7,29.99,North,5,3.0,22.0,57,0.00,,,0.00,0.0,meteohub,2013-02-25 12:07:00,
2013-02-25 07:12:00,35.4,21.7,29.99,North,9,4.0,20.0,57,0.00,,,0.00,0.0,meteohub,2013-02-25 12:12:00,
2013-02-25 07:17:00,35.8,21.6,29.99,NNE,22,3.0,27.0,56,0.00,,,0.00,5.0,meteohub,2013-02-25 12:17:00,
2013-02-25 07:22:00,35.8,21.6,29.99,North,5,14.0,27.0,56,0.00,,,0.00,9.0,meteohub,2013-02-25 12:22:00,
2013-02-25 07:27:00,35.8,20.8,29.99,North,355,18.0,27.0,54,0.00,,,0.00,12.0,meteohub,2013-02-25 12:27:00,
2013-02-25 07:32:00,35.6,20.7,30.00,North,5,6.0,32.0,54,0.00,,,0.00,16.0,meteohub,2013-02-25 12:32:00,
2013-02-25 07:37:00,35.6,20.7,30.00,North,355,17.0,32.0,54,0.00,,,0.00,19.0,meteohub,2013-02-25 12:37:00,
2013-02-25 07:42:00,35.4,20.5,30.00,North,5,7.0,32.0,54,0.00,,,0.00,25.0,meteohub,2013-02-25 12:42:00,
2013-02-25 07:47:00,35.4,20.5,30.01,East,82,4.0,32.0,54,0.00,,,0.00,28.0,meteohub,2013-02-25 12:47:00,
2013-02-25 07:54:00,35.2,20.7,30.00,NE,43,5.0,32.0,55,0.00,,,0.00,35.0,meteohub,2013-02-25 12:54:00,
2013-02-25 08:00:00,35.1,21.0,30.01,NNE,18,12.0,29.0,56,0.00,,,0.00,44.0,meteohub,2013-02-25 13:00:00,
2013-02-25 08:06:00,34.7,21.0,30.02,North,11,5.0,30.0,57,0.00,,,0.00,53.0,meteohub,2013-02-25 13:06:00,
2013-02-25 08:12:00,34.5,21.2,30.02,NNE,32,5.0,27.0,58,0.00,,,0.00,58.0,meteohub,2013-02-25 13:12:00,
2013-02-25 08:17:00,34.3,21.0,30.03,North,5,3.0,29.0,58,0.00,,,0.00,63.0,meteohub,2013-02-25 13:17:00,
2013-02-25 08:24:00,34.3,21.0,30.04,ESE,103,6.0,29.0,58,0.00,,,0.00,74.0,meteohub,2013-02-25 13:24:00,
2013-02-25 08:30:00,34.2,21.4,30.04,NNE,25,3.0,28.0,59,0.00,,,0.00,77.0,meteohub,2013-02-25 13:30:00,
2013-02-25 08:36:00,34.2,21.4,30.04,NNE,17,8.0,28.0,59,0.00,,,0.00,86.0,meteohub,2013-02-25 13:36:00,
2013-02-25 08:42:00,34.2,21.4,30.04,NNW,342,1.0,28.0,59,0.00,,,0.00,90.0,meteohub,2013-02-25 13:42:00,
2013-02-25 08:47:00,34.0,21.6,30.05,ENE,67,2.0,30.0,60,0.00,,,0.00,88.0,meteohub,2013-02-25 13:47:00,
2013-02-25 08:52:00,34.0,21.6,30.06,NNW,333,3.0,33.0,60,0.00,,,0.00,91.0,meteohub,2013-02-25 13:52:00,
2013-02-25 08:57:00,33.8,21.7,30.06,NNW,346,6.0,33.0,61,0.00,,,0.00,95.0,meteohub,2013-02-25 13:57:00,
2013-02-25 09:02:00,33.8,21.7,30.06,North,0,18.0,33.0,61,0.00,,,0.00,102.0,meteohub,2013-02-25 14:02:00,
2013-02-25 09:07:00,33.8,21.4,30.06,North,355,0.0,29.0,60,0.00,,,0.00,104.0,meteohub,2013-02-25 14:07:00,
2013-02-25 09:12:00,34.0,21.9,30.06,North,0,1.0,28.0,61,0.00,,,0.00,113.0,meteohub,2013-02-25 14:12:00,
2013-02-25 09:19:00,34.0,21.9,30.07,NE,46,7.0,28.0,61,0.00,,,0.00,121.0,meteohub,2013-02-25 14:19:00,
2013-02-25 09:25:00,34.0,21.9,30.07,NE,34,19.0,26.0,61,0.00,,,0.00,127.0,meteohub,2013-02-25 14:25:00,
2013-02-25 09:31:00,34.0,21.9,30.06,ENE,62,1.0,26.0,61,0.00,,,0.00,134.0,meteohub,2013-02-25 14:31:00,
2013-02-25 09:37:00,34.0,21.9,30.06,NE,55,1.0,26.0,61,0.00,,,0.00,135.0,meteohub,2013-02-25 14:37:00,
2013-02-25 09:42:00,34.0,21.9,30.06,North,5,14.0,23.0,61,0.00,,,0.00,135.0,meteohub,2013-02-25 14:42:00,
2013-02-25 09:47:00,34.0,21.9,30.06,NW,322,11.0,27.0,61,0.00,,,0.00,142.0,meteohub,2013-02-25 14:47:00,
2013-02-25 09:52:00,34.0,21.9,30.06,North,5,22.0,29.0,61,0.00,,,0.00,148.0,meteohub,2013-02-25 14:52:00,
2013-02-25 09:57:00,34.2,21.7,30.05,NNE,30,7.0,29.0,60,0.00,,,0.00,148.0,meteohub,2013-02-25 14:57:00,
2013-02-25 10:02:00,34.2,21.7,30.06,North,5,2.0,29.0,60,0.00,,,0.00,149.0,meteohub,2013-02-25 15:02:00,
2013-02-25 10:07:00,34.2,21.7,30.05,North,350,15.0,30.0,60,0.00,,,0.00,141.0,meteohub,2013-02-25 15:07:00,
2013-02-25 10:13:00,34.3,21.9,30.05,North,355,6.0,30.0,60,0.00,,,0.00,144.0,meteohub,2013-02-25 15:13:00,
2013-02-25 10:19:00,34.3,21.9,30.05,NNW,346,4.0,28.0,60,0.00,,,0.00,148.0,meteohub,2013-02-25 15:19:00,
2013-02-25 10:26:00,34.3,21.9,30.06,ENE,76,0.0,22.0,60,0.00,,,0.00,156.0,meteohub,2013-02-25 15:26:00,
2013-02-25 10:32:00,34.5,21.7,30.05,NNE,29,8.0,23.0,59,0.00,,,0.00,179.0,meteohub,2013-02-25 15:32:00,
2013-02-25 10:37:00,34.5,22.1,30.05,East,83,0.0,30.0,60,0.00,,,0.00,190.0,meteohub,2013-02-25 15:37:00,
2013-02-25 10:42:00,34.9,22.5,30.06,NNW,342,4.0,30.0,60,0.00,,,0.00,197.0,meteohub,2013-02-25 15:42:00,
2013-02-25 10:47:00,35.1,22.1,30.06,NE,36,6.0,30.0,59,0.00,,,0.00,206.0,meteohub,2013-02-25 15:47:00,
2013-02-25 10:53:00,35.2,22.3,30.05,NNE,17,17.0,25.0,59,0.00,,,0.00,216.0,meteohub,2013-02-25 15:53:00,
2013-02-25 10:59:00,35.6,22.3,30.05,NNW,331,1.0,22.0,58,0.00,,,0.00,223.0,meteohub,2013-02-25 15:59:00,
2013-02-25 11:05:00,35.8,22.5,30.05,North,9,6.0,28.0,58,0.00,,,0.00,193.0,meteohub,2013-02-25 16:05:00,
2013-02-25 11:11:00,35.8,22.5,30.05,North,5,3.0,28.0,58,0.00,,,0.00,197.0,meteohub,2013-02-25 16:11:00,
2013-02-25 11:17:00,35.6,22.3,30.04,NNE,17,17.0,24.0,58,0.00,,,0.00,206.0,meteohub,2013-02-25 16:17:00,
2013-02-25 11:22:00,35.4,23.7,30.04,NNE,28,6.0,27.0,62,0.00,,,0.00,232.0,meteohub,2013-02-25 16:22:00,
2013-02-25 11:27:00,35.6,22.6,30.03,ENE,63,0.0,27.0,59,0.00,,,0.00,260.0,meteohub,2013-02-25 16:27:00,
2013-02-25 11:32:00,35.8,22.8,30.04,NNW,338,3.0,27.0,59,0.00,,,0.00,276.0,meteohub,2013-02-25 16:32:00,
2013-02-25 11:37:00,36.0,22.6,30.04,NE,34,0.0,23.0,58,0.00,,,0.00,271.0,meteohub,2013-02-25 16:37:00,
2013-02-25 11:42:00,36.1,23.2,30.04,NNE,33,3.0,20.0,59,0.00,,,0.00,287.0,meteohub,2013-02-25 16:42:00,
2013-02-25 11:47:00,36.3,23.4,30.04,North,355,11.0,20.0,59,0.00,,,0.00,294.0,meteohub,2013-02-25 16:47:00,
2013-02-25 11:52:00,36.3,23.0,30.04,NNE,17,0.0,20.0,58,0.00,,,0.00,272.0,meteohub,2013-02-25 16:52:00,
2013-02-25 11:57:00,36.1,23.2,30.04,East,96,0.0,17.0,59,0.00,,,0.00,279.0,meteohub,2013-02-25 16:57:00,
2013-02-25 12:02:00,36.3,23.4,30.04,NNW,329,19.0,24.0,59,0.00,,,0.00,295.0,meteohub,2013-02-25 17:02:00,
2013-02-25 12:07:00,36.3,23.7,30.04,NNE,15,3.0,24.0,60,0.00,,,0.00,271.0,meteohub,2013-02-25 17:07:00,
2013-02-25 12:12:00,36.3,23.7,30.04,NNE,31,4.0,24.0,60,0.00,,,0.00,260.0,meteohub,2013-02-25 17:12:00,
2013-02-25 12:17:00,36.3,23.7,30.04,NNW,329,6.0,20.0,60,0.00,,,0.00,276.0,meteohub,2013-02-25 17:17:00,
2013-02-25 12:23:00,36.3,23.0,30.04,NE,39,0.0,25.0,58,0.00,,,0.00,279.0,meteohub,2013-02-25 17:23:00,
2013-02-25 12:29:00,36.9,23.5,30.03,NNE,27,4.0,32.0,58,0.00,,,0.00,308.0,meteohub,2013-02-25 17:29:00,
2013-02-25 12:35:00,37.4,23.9,30.03,NNE,15,5.0,19.0,58,0.00,,,0.00,373.0,meteohub,2013-02-25 17:35:00,
2013-02-25 12:41:00,37.8,24.3,30.03,NE,42,0.0,19.0,58,0.00,,,0.00,439.0,meteohub,2013-02-25 17:41:00,
2013-02-25 12:47:00,37.9,24.1,30.03,NNE,13,6.0,17.0,57,0.00,,,0.00,413.0,meteohub,2013-02-25 17:47:00,
2013-02-25 12:52:00,38.3,23.9,30.02,NNE,13,15.0,17.0,56,0.00,,,0.00,330.0,meteohub,2013-02-25 17:52:00,
2013-02-25 12:57:00,38.1,23.0,30.01,NNE,30,4.0,17.0,54,0.00,,,0.00,313.0,meteohub,2013-02-25 17:57:00,
2013-02-25 13:02:00,37.9,23.7,30.01,NNE,30,7.0,20.0,56,0.00,,,0.00,359.0,meteohub,2013-02-25 18:02:00,
2013-02-25 13:07:00,38.1,23.4,30.01,ENE,75,2.0,20.0,55,0.00,,,0.00,309.0,meteohub,2013-02-25 18:07:00,
2013-02-25 13:12:00,38.3,23.5,30.01,North,11,5.0,20.0,55,0.00,,,0.00,285.0,meteohub,2013-02-25 18:12:00,
2013-02-25 13:17:00,38.5,24.1,30.01,NW,318,2.0,18.0,56,0.00,,,0.00,316.0,meteohub,2013-02-25 18:17:00,
2013-02-25 13:24:00,38.7,24.8,30.01,NE,46,4.0,17.0,57,0.00,,,0.00,322.0,meteohub,2013-02-25 18:24:00,
2013-02-25 13:30:00,38.8,24.4,30.01,North,5,5.0,9.0,56,0.00,,,0.00,285.0,meteohub,2013-02-25 18:30:00,
2013-02-25 13:36:00,39.0,23.7,30.00,NE,38,3.0,5.0,54,0.00,,,0.00,248.0,meteohub,2013-02-25 18:36:00,
2013-02-25 13:42:00,39.0,23.7,30.00,ENE,67,1.0,5.0,54,0.00,,,0.00,264.0,meteohub,2013-02-25 18:42:00,
2013-02-25 13:47:00,38.8,24.1,30.01,NW,325,3.0,16.0,55,0.00,,,0.00,288.0,meteohub,2013-02-25 18:47:00,
2013-02-25 13:52:00,38.8,23.5,30.00,NNE,12,3.0,17.0,54,0.00,,,0.00,299.0,meteohub,2013-02-25 18:52:00,
2013-02-25 13:57:00,39.0,23.7,29.99,North,355,4.0,17.0,54,0.00,,,0.00,348.0,meteohub,2013-02-25 18:57:00,
2013-02-25 14:02:00,39.4,24.1,30.01,NNE,13,0.0,8.0,54,0.00,,,0.00,457.0,meteohub,2013-02-25 19:02:00,
2013-02-25 14:07:00,39.7,24.1,30.01,North,355,3.0,6.0,53,0.00,,,0.00,306.0,meteohub,2013-02-25 19:07:00,
2013-02-25 14:12:00,39.7,24.1,30.00,ENE,77,0.0,5.0,53,0.00,,,0.00,359.0,meteohub,2013-02-25 19:12:00,
2013-02-25 14:17:00,40.1,23.9,30.00,North,350,5.0,5.0,52,0.00,,,0.00,330.0,meteohub,2013-02-25 19:17:00,
2013-02-25 14:22:00,39.9,24.3,29.99,NNE,15,2.0,9.0,53,0.00,,,0.00,302.0,meteohub,2013-02-25 19:22:00,
2013-02-25 14:27:00,40.1,24.3,29.99,North,0,3.0,12.0,53,0.00,,,0.00,357.0,meteohub,2013-02-25 19:27:00,
2013-02-25 14:32:00,40.3,24.4,29.99,NNE,12,6.0,14.0,53,0.00,,,0.00,315.0,meteohub,2013-02-25 19:32:00,
2013-02-25 14:37:00,40.5,24.3,29.99,North,5,2.0,14.0,52,0.00,,,0.00,279.0,meteohub,2013-02-25 19:37:00,
2013-02-25 14:42:00,40.6,24.8,29.99,NE,43,0.0,14.0,53,0.00,,,0.00,246.0,meteohub,2013-02-25 19:42:00,
2013-02-25 14:47:00,40.8,25.5,29.99,NNE,12,2.0,14.0,54,0.00,,,0.00,246.0,meteohub,2013-02-25 19:47:00,
2013-02-25 14:52:00,40.8,24.6,29.99,ENE,73,0.0,6.0,52,0.00,,,0.00,237.0,meteohub,2013-02-25 19:52:00,
2013-02-25 14:57:00,41.0,24.8,29.99,ENE,78,0.0,4.0,52,0.00,,,0.00,313.0,meteohub,2013-02-25 19:57:00,
2013-02-25 15:02:00,40.5,24.6,29.99,East,90,0.0,5.0,53,0.00,,,0.00,287.0,meteohub,2013-02-25 20:02:00,
2013-02-25 15:07:00,40.3,25.0,29.98,NE,44,2.0,5.0,54,0.00,,,0.00,258.0,meteohub,2013-02-25 20:07:00,
2013-02-25 15:12:00,40.6,24.4,29.98,ENE,74,0.0,6.0,52,0.00,,,0.00,257.0,meteohub,2013-02-25 20:12:00,
2013-02-25 15:17:00,40.6,23.0,29.99,East,81,0.0,6.0,49,0.00,,,0.00,221.0,meteohub,2013-02-25 20:17:00,
2013-02-25 15:22:00,40.8,24.6,29.99,NE,40,4.0,6.0,52,0.00,,,0.00,181.0,meteohub,2013-02-25 20:22:00,
2013-02-25 15:27:00,40.6,24.4,29.99,NE,55,0.0,6.0,52,0.00,,,0.00,241.0,meteohub,2013-02-25 20:27:00,
2013-02-25 15:32:00,40.5,25.2,29.99,East,99,0.0,5.0,54,0.00,,,0.00,234.0,meteohub,2013-02-25 20:32:00,
2013-02-25 15:37:00,40.3,25.0,29.99,East,92,0.0,11.0,54,0.00,,,0.00,227.0,meteohub,2013-02-25 20:37:00,
2013-02-25 15:42:00,39.9,24.6,29.99,ENE,67,0.0,11.0,54,0.00,,,0.00,287.0,meteohub,2013-02-25 20:42:00,
2013-02-25 15:47:00,40.1,23.9,29.99,NE,38,0.0,11.0,52,0.00,,,0.00,190.0,meteohub,2013-02-25 20:47:00,
2013-02-25 15:52:00,40.1,24.3,29.99,East,81,0.0,6.0,53,0.00,,,0.00,206.0,meteohub,2013-02-25 20:52:00,
2013-02-25 15:57:00,40.3,25.0,29.99,East,86,0.0,6.0,54,0.00,,,0.00,207.0,meteohub,2013-02-25 20:57:00,
2013-02-25 16:02:00,40.3,24.4,29.99,SE,133,2.0,6.0,53,0.00,,,0.00,156.0,meteohub,2013-02-25 21:02:00,
2013-02-25 16:07:00,40.5,25.2,29.99,North,355,3.0,6.0,54,0.00,,,0.00,172.0,meteohub,2013-02-25 21:07:00,
2013-02-25 16:12:00,40.5,25.2,29.99,NNE,23,1.0,5.0,54,0.00,,,0.00,171.0,meteohub,2013-02-25 21:12:00,
2013-02-25 16:17:00,40.3,25.0,29.98,NNE,23,13.0,13.0,54,0.00,,,0.00,257.0,meteohub,2013-02-25 21:17:00,
2013-02-25 16:22:00,39.9,24.6,29.98,NNE,19,3.0,22.0,54,0.00,,,0.00,151.0,meteohub,2013-02-25 21:22:00,
2013-02-25 16:27:00,39.9,25.0,29.98,NE,41,0.0,22.0,55,0.00,,,0.00,148.0,meteohub,2013-02-25 21:27:00,
2013-02-25 16:32:00,39.9,25.0,29.98,NNE,24,3.0,22.0,55,0.00,,,0.00,128.0,meteohub,2013-02-25 21:32:00,
2013-02-25 16:37:00,39.7,25.0,29.98,NE,37,8.0,17.0,55,0.00,,,0.00,120.0,meteohub,2013-02-25 21:37:00,
2013-02-25 16:42:00,39.7,25.3,29.98,NNE,13,1.0,18.0,56,0.00,,,0.00,116.0,meteohub,2013-02-25 21:42:00,
2013-02-25 16:47:00,39.7,25.7,29.99,North,351,1.0,18.0,57,0.00,,,0.00,74.0,meteohub,2013-02-25 21:47:00,
2013-02-25 16:52:00,39.7,25.7,29.99,North,0,1.0,18.0,57,0.00,,,0.00,74.0,meteohub,2013-02-25 21:52:00,
2013-02-25 16:57:00,39.6,25.5,29.99,ESE,112,2.0,8.0,57,0.00,,,0.00,90.0,meteohub,2013-02-25 21:57:00,
2013-02-25 17:02:00,39.4,25.0,29.99,North,355,0.0,6.0,56,0.00,,,0.00,130.0,meteohub,2013-02-25 22:02:00,
2013-02-25 17:07:00,39.4,25.0,29.99,East,90,0.0,6.0,56,0.00,,,0.00,109.0,meteohub,2013-02-25 22:07:00,
2013-02-25 17:12:00,39.4,25.0,29.99,North,9,1.0,6.0,56,0.00,,,0.00,60.0,meteohub,2013-02-25 22:12:00,
2013-02-25 17:17:00,39.2,24.8,29.98,North,355,0.0,6.0,56,0.00,,,0.00,42.0,meteohub,2013-02-25 22:17:00,
2013-02-25 17:22:00,38.8,24.1,29.98,NNW,345,5.0,6.0,55,0.00,,,0.00,46.0,meteohub,2013-02-25 22:22:00,
2013-02-25 17:27:00,38.7,24.3,29.98,NNW,347,2.0,23.0,56,0.00,,,0.00,56.0,meteohub,2013-02-25 22:27:00,
2013-02-25 17:32:00,38.7,24.8,29.98,NNE,26,1.0,23.0,57,0.00,,,0.00,67.0,meteohub,2013-02-25 22:32:00,
2013-02-25 17:37:00,38.7,24.8,29.98,NE,49,2.0,23.0,57,0.00,,,0.00,53.0,meteohub,2013-02-25 22:37:00,
2013-02-25 17:42:00,38.5,25.0,29.98,NNW,334,3.0,7.0,58,0.00,,,0.00,40.0,meteohub,2013-02-25 22:42:00,
2013-02-25 17:49:00,38.3,25.2,29.97,NE,47,0.0,7.0,59,0.00,,,0.00,26.0,meteohub,2013-02-25 22:49:00,
2013-02-25 17:55:00,38.1,25.0,29.97,East,88,4.0,12.0,59,0.00,,,0.00,23.0,meteohub,2013-02-25 22:55:00,
2013-02-25 18:01:00,37.8,25.5,29.97,NE,37,3.0,12.0,61,0.00,,,0.00,19.0,meteohub,2013-02-25 23:01:00,
2013-02-25 18:07:00,37.6,25.7,29.97,NNE,20,4.0,12.0,62,0.00,,,0.00,14.0,meteohub,2013-02-25 23:07:00,
2013-02-25 18:12:00,37.2,25.7,29.97,East,79,1.0,14.0,63,0.00,,,0.00,5.0,meteohub,2013-02-25 23:12:00,
2013-02-25 18:17:00,37.0,26.1,29.97,North,5,3.0,14.0,64,0.00,,,0.00,0.0,meteohub,2013-02-25 23:17:00,
2013-02-25 18:22:00,36.9,25.9,29.98,NNE,17,0.0,14.0,64,0.00,,,0.00,0.0,meteohub,2013-02-25 23:22:00,
2013-02-25 18:27:00,36.9,25.9,29.99,NE,53,4.0,21.0,64,0.00,,,0.00,0.0,meteohub,2013-02-25 23:27:00,
2013-02-25 18:32:00,36.7,26.1,29.99,NE,40,8.0,21.0,65,0.00,,,0.00,0.0,meteohub,2013-02-25 23:32:00,
2013-02-25 18:37:00,36.3,25.7,29.99,North,10,18.0,18.0,65,0.00,,,0.00,0.0,meteohub,2013-02-25 23:37:00,
2013-02-25 18:42:00,36.3,26.1,29.99,NNE,28,2.0,19.0,66,0.00,,,0.00,0.0,meteohub,2013-02-25 23:42:00,
2013-02-25 18:47:00,36.1,25.9,29.99,NE,49,1.0,19.0,66,0.00,,,0.00,0.0,meteohub,2013-02-25 23:47:00,
2013-02-25 18:52:00,36.0,26.1,29.98,NNE,26,1.0,19.0,67,0.00,,,0.00,0.0,meteohub,2013-02-25 23:52:00,
2013-02-25 18:57:00,35.8,25.9,29.99,North,11,2.0,21.0,67,0.00,,,0.00,0.0,meteohub,2013-02-25 23:57:00,
2013-02-25 19:02:00,35.8,25.9,29.99,NE,36,4.0,21.0,67,0.00,,,0.00,0.0,meteohub,2013-02-26 00:02:00,
2013-02-25 19:07:00,35.8,25.9,29.99,NE,42,2.0,21.0,67,0.00,,,0.00,0.0,meteohub,2013-02-26 00:07:00,
2013-02-25 19:12:00,35.6,26.1,29.99,North,355,4.0,18.0,68,0.00,,,0.00,0.0,meteohub,2013-02-26 00:12:00,
2013-02-25 19:17:00,35.4,25.9,29.99,NNE,28,5.0,18.0,68,0.00,,,0.00,0.0,meteohub,2013-02-26 00:17:00,
2013-02-25 19:22:00,35.4,25.9,29.99,NNE,12,5.0,20.0,68,0.00,,,0.00,0.0,meteohub,2013-02-26 00:22:00,
2013-02-25 19:27:00,35.2,25.7,29.99,NNW,347,4.0,24.0,68,0.00,,,0.00,0.0,meteohub,2013-02-26 00:27:00,
2013-02-25 19:32:00,35.2,25.7,29.99,NNW,348,12.0,24.0,68,0.00,,,0.00,0.0,meteohub,2013-02-26 00:32:00,
2013-02-25 19:37:00,35.2,25.7,29.99,North,5,2.0,22.0,68,0.00,,,0.00,0.0,meteohub,2013-02-26 00:37:00,
2013-02-25 19:42:00,35.1,25.5,29.99,NNE,30,6.0,25.0,68,0.00,,,0.00,0.0,meteohub,2013-02-26 00:42:00,
2013-02-25 19:47:00,35.1,25.9,29.98,NNE,19,5.0,25.0,69,0.00,,,0.00,0.0,meteohub,2013-02-26 00:47:00,
2013-02-25 19:52:00,34.9,25.7,29.98,NE,35,6.0,29.0,69,0.00,,,0.00,0.0,meteohub,2013-02-26 00:52:00,
2013-02-25 19:57:00,34.9,25.7,29.98,North,5,5.0,29.0,69,0.00,,,0.00,0.0,meteohub,2013-02-26 00:57:00,
2013-02-25 20:02:00,34.9,25.7,29.99,NE,34,1.0,29.0,69,0.00,,,0.00,0.0,meteohub,2013-02-26 01:02:00,
2013-02-25 20:07:00,34.9,25.7,30.00,NNE,31,2.0,20.0,69,0.00,,,0.00,0.0,meteohub,2013-02-26 01:07:00,
2013-02-25 20:12:00,34.9,26.1,30.00,NNE,28,4.0,20.0,70,0.00,,,0.00,0.0,meteohub,2013-02-26 01:12:00,
2013-02-25 20:17:00,34.7,25.9,30.00,NE,34,2.0,21.0,70,0.00,,,0.00,0.0,meteohub,2013-02-26 01:17:00,
2013-02-25 20:22:00,34.5,25.7,30.00,North,11,6.0,21.0,70,0.00,,,0.00,0.0,meteohub,2013-02-26 01:22:00,
2013-02-25 20:27:00,34.5,25.7,30.00,NNE,27,1.0,23.0,70,0.00,,,0.00,0.0,meteohub,2013-02-26 01:27:00,
2013-02-25 20:32:00,34.3,25.5,29.99,NNW,335,1.0,28.0,70,0.00,,,0.00,0.0,meteohub,2013-02-26 01:32:00,
2013-02-25 20:37:00,34.3,25.9,30.00,NNE,13,5.0,28.0,71,0.00,,,0.00,0.0,meteohub,2013-02-26 01:37:00,
2013-02-25 20:42:00,34.2,25.7,29.99,NNW,347,8.0,28.0,71,0.00,,,0.00,0.0,meteohub,2013-02-26 01:42:00,
2013-02-25 20:47:00,34.2,25.7,30.00,North,355,15.0,32.0,71,0.00,,,0.00,0.0,meteohub,2013-02-26 01:47:00,
2013-02-25 20:52:00,34.2,25.7,30.00,NNE,14,4.0,32.0,71,0.00,,,0.00,0.0,meteohub,2013-02-26 01:52:00,
2013-02-25 20:59:00,34.0,25.9,30.01,East,94,1.0,32.0,72,0.00,,,0.00,0.0,meteohub,2013-02-26 01:59:00,
2013-02-25 21:05:00,33.8,25.7,30.00,ENE,74,0.0,23.0,72,0.00,,,0.00,0.0,meteohub,2013-02-26 02:05:00,
2013-02-25 21:11:00,33.6,25.5,30.00,East,90,2.0,18.0,72,0.00,,,0.00,0.0,meteohub,2013-02-26 02:11:00,
2013-02-25 21:17:00,33.6,25.9,29.99,NE,34,7.0,18.0,73,0.00,,,0.00,0.0,meteohub,2013-02-26 02:17:00,
2013-02-25 21:22:00,33.6,25.5,29.99,NNE,13,18.0,24.0,72,0.00,,,0.00,0.0,meteohub,2013-02-26 02:22:00,
2013-02-25 21:27:00,33.4,25.3,30.00,NNE,22,4.0,24.0,72,0.00,,,0.00,0.0,meteohub,2013-02-26 02:27:00,
2013-02-25 21:32:00,33.4,25.3,29.99,North,5,13.0,24.0,72,0.00,,,0.00,0.0,meteohub,2013-02-26 02:32:00,
2013-02-25 21:37:00,33.4,25.3,29.99,North,351,13.0,25.0,72,0.00,,,0.00,0.0,meteohub,2013-02-26 02:37:00,
2013-02-25 21:42:00,33.6,25.2,29.98,WSW,255,1.0,30.0,71,0.00,,,0.00,0.0,meteohub,2013-02-26 02:42:00,
2013-02-25 21:47:00,33.6,25.5,29.99,ENE,77,5.0,34.0,72,0.00,,,0.00,0.0,meteohub,2013-02-26 02:47:00,
2013-02-25 21:52:00,33.4,25.3,29.99,NNE,15,2.0,34.0,72,0.00,,,0.00,0.0,meteohub,2013-02-26 02:52:00,
2013-02-25 21:57:00,33.4,25.0,29.99,North,5,13.0,34.0,71,0.00,,,0.00,0.0,meteohub,2013-02-26 02:57:00,
2013-02-25 22:02:00,33.4,25.3,29.99,NE,36,6.0,37.0,72,0.00,,,0.00,0.0,meteohub,2013-02-26 03:02:00,
2013-02-25 22:07:00,33.3,25.2,29.97,NNE,23,4.0,37.0,72,0.00,,,0.00,0.0,meteohub,2013-02-26 03:07:00,
2013-02-25 22:12:00,32.9,24.8,29.97,NNW,331,6.0,37.0,72,0.00,,,0.00,0.0,meteohub,2013-02-26 03:12:00,
2013-02-25 22:17:00,32.7,25.3,29.99,NNW,339,8.0,31.0,74,0.00,,,0.00,0.0,meteohub,2013-02-26 03:17:00,
2013-02-25 22:22:00,32.7,25.3,29.99,NNE,20,6.0,31.0,74,0.00,,,0.00,0.0,meteohub,2013-02-26 03:22:00,
2013-02-25 22:27:00,32.5,25.5,29.99,SW,217,1.0,34.0,75,0.00,,,0.00,0.0,meteohub,2013-02-26 03:27:00,
2013-02-25 22:32:00,32.4,25.9,30.00,NNE,15,5.0,34.0,77,0.00,,,0.00,0.0,meteohub,2013-02-26 03:32:00,
2013-02-25 22:37:00,32.2,25.7,30.00,NE,40,17.0,30.0,77,0.00,,,0.00,0.0,meteohub,2013-02-26 03:37:00,
2013-02-25 22:42:00,31.8,26.1,29.99,South,187,0.0,36.0,79,0.00,,,0.00,0.0,meteohub,2013-02-26 03:42:00,
2013-02-25 22:47:00,31.6,26.2,29.99,ENE,72,5.0,36.0,80,0.00,,,0.00,0.0,meteohub,2013-02-26 03:47:00,
2013-02-25 22:52:00,31.3,26.4,29.98,NNE,18,1.0,36.0,82,0.00,,,0.00,0.0,meteohub,2013-02-26 03:52:00,
2013-02-25 22:57:00,30.9,26.6,29.98,NNE,13,4.0,36.0,84,0.00,,,0.00,0.0,meteohub,2013-02-26 03:57:00,
2013-02-25 23:03:00,30.6,27.0,29.98,NNE,15,28.0,36.0,86,0.00,,,0.00,0.0,meteohub,2013-02-26 04:03:00,
2013-02-25 23:09:00,30.4,27.3,29.99,NE,43,1.0,32.0,88,0.00,,,0.00,0.0,meteohub,2013-02-26 04:09:00,
2013-02-25 23:15:00,30.2,27.3,29.98,NE,52,2.0,31.0,89,0.00,,,0.00,0.0,meteohub,2013-02-26 04:15:00,
2013-02-25 23:21:00,30.0,27.1,29.97,North,355,5.0,24.0,89,0.00,,,0.00,0.0,meteohub,2013-02-26 04:21:00,
2013-02-25 23:27:00,30.0,27.5,29.96,NNE,15,1.0,29.0,90,0.00,,,0.00,0.0,meteohub,2013-02-26 04:27:00,
2013-02-25 23:32:00,30.0,27.5,29.96,NE,38,5.0,35.0,90,0.00,,,0.00,0.0,meteohub,2013-02-26 04:32:00,
2013-02-25 23:37:00,29.8,27.3,29.96,NNE,32,8.0,35.0,90,0.00,,,0.00,0.0,meteohub,2013-02-26 04:37:00,
2013-02-25 23:42:00,29.8,27.5,29.97,East,92,0.0,29.0,91,0.00,,,0.00,0.0,meteohub,2013-02-26 04:42:00,
2013-02-25 23:47:00,29.8,27.5,29.96,North,11,25.0,28.0,91,0.00,,,0.00,0.0,meteohub,2013-02-26 04:47:00,
2013-02-25 23:52:00,30.0,27.5,29.97,East,83,2.0,28.0,90,0.00,,,0.00,0.0,meteohub,2013-02-26 04:52:00,
2013-02-25 23:57:00,30.0,27.7,29.96,North,5,8.0,27.0,91,0.00,,,0.00,0.0,meteohub,2013-02-26 04:57:00,